User: anonymous   Login
Location: Trois-Rivi�res
(46.3500°N, 72.5500°W)
Time: 00:50:29
(UTC-04:00)
Language:

SJ-11-01 - Orbit

View from above orbital plane
View from above orbital plane
View from above satellite
View from above satellite

Ground track
Ground track

The orbit data is extracted from the following two-line orbital elements,

1 36088U 09061A   15181.76009285  .00000276  00000-0  67750-4 0  9998
2 36088 098.2369 227.5842 0011355 351.3976 008.7006 14.59654198299972
Epoch (UTC): 30 June 2015 18:14:32
Eccentricity: 0.0011355
inclination: 98.2369°
perigee height: 686 km
apogee height: 702 km
right ascension of ascending node: 227.5842°
argument of perigee: 351.3976°
revolutions per day: 14.59654198
mean anomaly at epoch: 8.7006°
orbit number at epoch: 29997

The dashed part of the orbit path shows where the satellite is in the earth's shadow,  

DLR